www.pogodaiklimat.ru

Погода и климат >> Архив погоды >> Антарктида >> Halley


ПОГОДА в Halley

  • Прогноз погоды в Halley
  • Монитор погоды в Halley
  • Климат города

АРХИВ ПОГОДЫ в Halley

Время (UTC), дата Ветер
(напр.,м/с)
 
Видим.   Явления Облачность Т
(С)
Тd
(С)
f
(%)
Тe
(С)
Тes
(С)
Комфортность P
(гПа)
Po
(гПа)
Тmin
(С)
Tmax
(С)
R
(мм)
R24
(мм)
S
(см)
01 14.10 СЗ 1 н/о н/о -20.7 -22.6 85 -24 -24 982.4 978.4
03 14.10 н/о н/о -24.4 -26.5 83 982.6 978.6
05 14.10 н/о н/о -22.5 -24.5 84 982.8 978.8
06 14.10 н/о н/о -22.5 -24.6 83 982.9 978.9
07 14.10 н/о н/о -24.1 -26.2 83 983.1 979.1
08 14.10 штиль 0 н/о н/о -24.7 -26.9 82 -25 -25 983.5 979.5
10 14.10 штиль 0 н/о н/о -22.5 -24.7 82 -23 -23 984.0 980.0
12 14.10 штиль 0 н/о н/о -24.0 -26.1 83 -24 -24 984.2 980.2
13 14.10 штиль 0 н/о н/о -21.2 -23.1 85 -21 -21 984.7 980.7
15 14.10 штиль 0 н/о н/о -22.0 -24.0 84 -22 -22 984.8 980.8
16 14.10 штиль 0 н/о н/о -21.2 -23.4 82 -21 -21 984.8 980.8
17 14.10 штиль 0 н/о н/о -20.3 -22.4 83 -20 -20 984.8 980.8
18 14.10 штиль 0 н/о н/о -23.1 -25.6 80 -23 -23 985.0 981.0
20 14.10 штиль 0 н/о н/о -24.4 -26.6 82 -24 -24 985.3 981.3
22 14.10 штиль 0 н/о н/о -27.7 -30.2 79 -28 -28 985.9 981.8
23 14.10 штиль 0 н/о н/о -28.2 -30.6 80 -28 -28 986.1 982.0
01 15.10 З 2 н/о н/о -28.8 -31.4 78 -35 -35 опасность
обморожения
986.7 982.6
03 15.10 н/о н/о -29.3 -31.9 78 987.0 982.9
04 15.10 н/о н/о -29.5 -32.2 77 986.9 982.8
06 15.10 н/о н/о -30.1 -32.9 76 987.3 983.2
08 15.10 н/о н/о -29.3 -31.9 78 987.9 983.8
09 15.10 штиль 0 н/о н/о -24.1 -26.0 84 -24 -24 988.2 984.2
11 15.10 З 2 н/о н/о -25.7 -28.8 75 -31 -31 опасность
обморожения
989.2 985.1
14 15.10 З 3 н/о н/о -24.2 -26.7 80 -33 -33 опасность
обморожения
990.1 986.0
13 15.10 З 2 н/о н/о -24.8 -27.5 78 -32 -32 опасность
обморожения
989.8 985.7
15 15.10 З 3 н/о н/о -24.0 -26.6 79 -33 -33 опасность
обморожения
990.4 986.3
16 15.10 З 3 н/о н/о +10.1 +6.3 77
18 15.10 З 2 н/о н/о -24.5 -27.2 78 -31 -31 опасность
обморожения
991.1 987.0
19 15.10 З 2 н/о н/о -25.0 -27.7 78 -30 -30 991.5 987.4
20 15.10 З 2 н/о н/о -25.3 -27.7 80 -32 -32 опасность
обморожения
992.0 987.9
21 15.10 З 4 н/о н/о -21.0 -23.3 82 -30 -30 992.4 988.4
22 15.10 З 5 н/о н/о -19.4 -21.5 83 -29 -29 992.8 988.8
23 15.10 З 5 н/о н/о -16.9 -19.0 84 -26 -26 993.4 989.4
01 16.10 В 6 н/о н/о -15.8 -18.0 83 -26 -26 993.6 989.7
02 16.10 В 5 н/о н/о -15.7 -18.1 82 -25 -25 993.5 989.6
06 16.10 В 5 н/о н/о -21.1 -22.9 85 -31 -31 опасность
обморожения
993.4 989.4
08 16.10 В 4 н/о н/о -19.6 -22.0 81 -29 -29 993.1 989.1
09 16.10 В 6 н/о н/о -17.4 -20.0 80 -28 -28 992.5 988.5
11 16.10 В 5 н/о н/о -16.8 -19.6 79 -26 -26 991.2 987.3
12 16.10 В 3 н/о н/о -15.8 -18.6 79 -22 -22 990.1 986.2
13 16.10 ЮВ 2 н/о н/о -15.1 -18.0 78 -20 -20 989.2 985.3
14 16.10 ЮВ 2 н/о н/о -14.1 -16.6 81 -19 -19 988.0 984.1
15 16.10 ЮВ 3 н/о н/о -13.3 -16.1 79 -19 -19 986.6 982.7
16 16.10 Ю 3 н/о н/о -13.5 -15.8 83 -19 -19 984.6 980.7
17 16.10 ЮВ 4 н/о н/о -10.9 -13.6 80 -18 -18 982.8 979.0
18 16.10 В 6 н/о н/о -9.1 -10.4 90 -18 -18 981.7 977.9
20 16.10 В 8 н/о н/о -6.9 -7.6 95 -16 -16 980.2 976.4
21 16.10 В 9 н/о н/о -6.6 -7.2 95 -16 -16 979.2 975.4
23 16.10 В 13 н/о н/о -7.2 -7.8 95 -19 -19 978.0 974.2
01 17.10 В 14 н/о н/о -6.9 -7.5 95 -19 -19 976.9 973.2
02 17.10 В 10 н/о н/о -6.4 -6.9 96 -17 -17 976.5 972.8
04 17.10 В 9 н/о н/о -6.1 -6.5 97 -16 -16 975.3 971.6
05 17.10 В 10 н/о н/о -6.1 -6.6 96 -16 -16 974.7 971.0
06 17.10 В 9 н/о н/о -6.6 -7.1 96 -16 -16 974.9 971.2
07 17.10 В 9 н/о н/о -6.8 -7.4 95 -16 -16 975.5 971.8
08 17.10 В 8 н/о н/о -6.8 -7.4 95 -16 -16 976.7 973.0
09 17.10 СВ 7 н/о н/о -7.0 -7.7 95 -16 -16 978.1 974.3
10 17.10 СВ 9 н/о н/о -7.3 -8.0 95 -17 -17 979.7 975.9
11 17.10 СВ 10 н/о н/о -8.4 -9.2 94 -19 -19 982.1 978.3
12 17.10 СВ 10 н/о н/о -9.0 -9.9 93 -20 -20 983.9 980.1
13 17.10 В 10 н/о н/о -7.8 -8.5 95 -18 -18 985.4 981.6
14 17.10 В 12 н/о н/о -7.2 -7.9 95 -18 -18 985.8 982.0
15 17.10 В 12 н/о н/о -7.7 -8.4 95 -19 -19 985.7 981.9
16 17.10 СВ 11 н/о н/о -7.2 -7.8 95 -18 -18 985.8 982.0
17 17.10 СВ 10 н/о н/о -6.9 -7.6 95 -17 -17 986.9 983.1
18 17.10 СВ 9 н/о н/о -7.0 -7.7 95 -17 -17 987.7 983.9
19 17.10 СВ 9 н/о н/о -7.6 -8.3 95 -17 -17 988.4 984.6
21 17.10 СВ 8 н/о н/о -8.0 -8.7 95 -18 -18 989.4 985.6
22 17.10 СВ 8 н/о н/о -8.6 -9.3 95 -18 -18 989.6 985.8
23 17.10 СВ 6 н/о н/о -9.9 -10.8 93 -19 -19 990.4 986.6
00 18.10 СВ 6 н/о н/о -10.0 -10.9 93 -19 -19 991.1 987.3
02 18.10 СВ 6 н/о н/о -10.0 -10.9 93 -19 -19 992.3 988.5
01 18.10 СВ 6 н/о н/о -9.9 -10.8 93 -19 -19 991.7 987.9
03 18.10 СВ 5 н/о н/о -10.5 -11.3 94 -18 -18 992.9 989.0
04 18.10 СВ 4 н/о н/о -10.9 -11.9 92 -18 -18 992.9 989.0
05 18.10 СВ 3 н/о н/о -12.0 -13.1 91 -18 -18 993.0 989.1
06 18.10 СВ 2 н/о н/о -12.7 -13.9 91 -17 -17 993.1 989.2
08 18.10 В 2 н/о н/о -12.6 -13.7 91 -17 -17 993.5 989.6
07 18.10 СВ 2 н/о н/о -14.3 -15.5 91 -19 -19 993.2 989.3
09 18.10 В 2 н/о н/о -11.8 -13.1 90 -15 -15 993.7 989.8
11 18.10 В 2 н/о н/о -10.6 -11.8 91 -14 -14 993.9 990.0
12 18.10 В 2 н/о н/о -9.6 -10.9 90 -14 -14 994.0 990.1
13 18.10 В 3 н/о н/о -7.9 -8.9 93 -14 -14 993.8 990.0
14 18.10 В 4 н/о н/о -7.2 -8.1 93 -14 -14 993.8 990.0
15 18.10 В 5 н/о н/о -6.6 -7.4 94 -14 -14 993.8 990.0
17 18.10 В 8 н/о н/о -5.4 -6.1 95 -14 -14 993.5 989.7
18 18.10 В 8 н/о н/о -5.7 -6.4 95 -15 -15 993.6 989.8
19 18.10 В 9 н/о н/о -5.9 -6.6 95 -15 -15 993.7 989.9
20 18.10 В 8 н/о н/о -6.2 -6.9 95 -16 -16 993.9 990.1
21 18.10 В 8 н/о н/о -6.6 -7.2 95 -16 -16 994.3 990.5
23 18.10 В 7 н/о н/о -7.3 -7.9 95 -16 -16 994.8 991.0
22 18.10 В 7 н/о н/о -7.1 -7.7 95 -16 -16 994.6 990.8
00 19.10 В 9 н/о н/о -7.3 -7.9 95 -17 -17 995.3 991.5
01 19.10 В 8 н/о н/о -7.4 -8.0 95 -17 -17 995.3 991.5
02 19.10 В 8 н/о н/о -7.8 -8.5 95 -17 -17 995.5 991.7
05 19.10 В 8 н/о н/о -8.8 -9.6 94 -18 -18 995.9 992.1
04 19.10 В 8 н/о н/о -8.3 -9.0 95 -18 -18 995.8 992.0
06 19.10 В 6 н/о н/о -9.7 -10.5 94 -18 -18 996.1 992.2
07 19.10 В 5 н/о н/о -9.6 -10.5 93 -18 -18 996.3 992.4
09 19.10 В 3 н/о н/о -9.5 -10.4 93 -16 -16 996.1 992.2
11 19.10 В 3 н/о н/о -7.8 -8.9 92 -13 -13 996.1 992.3
12 19.10 В 5 н/о н/о -7.9 -9.0 92 -16 -16 996.0 992.2
14 19.10 В 5 н/о н/о -7.8 -8.8 93 -15 -15 996.1 992.3
13 19.10 В 4 н/о н/о -8.8 -9.9 92 -15 -15 996.2 992.4
16 19.10 В 3 н/о н/о -7.4 -8.4 93 -13 -13 995.6 991.8
17 19.10 В 3 н/о н/о -7.0 -8.0 93 -13 -13 995.4 991.6
18 19.10 В 3 н/о н/о -6.9 -7.9 93
19 19.10 ЮВ 2 н/о н/о -7.1 -8.0 93 -11 -11 995.1 991.3
21 19.10 ЮЗ 1 н/о н/о -8.5 -9.3 94 -11 -11 994.6 990.8
22 19.10 ЮЗ 2 н/о н/о -9.5 -10.3 94 -13 -13 994.1 990.3
00 20.10 В 4 н/о н/о -13.6 -14.8 91 -21 -21 993.7 989.8
02 20.10 В 3 н/о н/о -16.6 -18.2 87 -24 -24 993.8 989.8
04 20.10 СВ 3 н/о н/о -18.9 -20.6 86 -26 -26 993.1 989.1
05 20.10 В 2 н/о н/о -20.4 -22.2 85 -26 -26 992.6 988.6
07 20.10 В 4 н/о н/о -15.8 -17.8 85 -23 -23 991.9 988.0
09 20.10 В 3 н/о н/о -18.2 -20.5 82 -25 -25 991.2 987.2
10 20.10 СВ 3 н/о н/о -17.6 -20.2 80 -24 -24 991.0 987.0
12 20.10 н/о н/о -15.6 -18.0 82 990.6 986.7
14 20.10 н/о н/о -12.3 -16.0 74 990.0 986.1
15 20.10 штиль 0 н/о н/о -11.0 -15.8 68 -11 -11 989.3 985.4
17 20.10 н/о н/о -13.2 -17.2 72 988.6 984.7
16 20.10 штиль 0 н/о н/о -8.4 -13.2 68 -9 -9 988.9 985.1
18 20.10 З 2 н/о н/о -14.8 -18.4 74 -19 -19 988.3 984.4
21 20.10 З 1 н/о н/о -21.2 -22.3 91 -24 -24 987.8 983.8
22 20.10 ЮЗ 2 н/о н/о -16.7 -17.9 90 -21 -21 987.4 983.5
00 21.10 З 2 н/о н/о -19.9 -21.6 86 -25 -25 987.6 983.6

 

Местоположение метеостанции Halley (Антарктида): широта -75.50 долгота -26.65 высота над уровнем моря 30 м.

В архиве по умолчанию представлена погода в Halley за последнюю неделю. Архивные данные за месяц целиком и за предыдущие месяцы, начиная с января 2011 года, Вы можете получить, выбрав интересующий диапазон дат из раскрывающегося списка и нажав кнопку "Ввод!".

Внимание! Время в таблицах - всемирное. Для получения местного времени необходимо прибавить поправку, которая в Halley равна 0 ч.

Смотрите также архив погоды в соседних городах и на ближайших метеорологических станциях:

Погода в Base Belgrano Ii (Антарктида) (332 км)
Погода в Nordenskiold Base (Антарктида) (482 км)
Погода в Kohnen Ep9 (Антарктида) (750 км)
Погода в Neumayer (Антарктида) (797 км)
Погода в S.a.n.a.e. aws (Антарктида) (851 км)
Погода в Troll (Антарктида) (970 км)
Погода в Butler Island (Антарктида) (1082 км)
Погода в Sky Blue (Антарктида) (1250 км)
Погода в Maitri (Антарктида) (1317 км)
Погода в Novolazarevskaja (Антарктида) (1318 км)

Пояснения к столбцам:

Ветер - указаны скорость ветра в м/с - средняя за 10 мин, порывы в срок и между сроками (в фигурных скобках) и направление, откуда дует ветер: С - северный, СВ - северо-восточный, В - восточный, ЮВ - юго-восточный, Ю - южный, ЮЗ - юго-западный, З - западный, СЗ - северо-западный.
Видимость - горизонтальная дальность видимости в метрах или километрах. При видимости от 1 до 10 км при отсутствии осадков обычно наблюдается дымка, при ухудшении видимости до 1 км и менее - туман. В сухую погоду видимость может ухудшаться дымом, пылью или мглою.
Явления - указаны атмосферные явления, наблюдавшиеся в срок или в последний час перед сроком; фигурными скобками обозначены явления, наблюдавшиеся между сроками (за 1-3 часа до срока); квадратными скобками обозначены град или гололедные отложения с указанием их диаметра в мм.
Облачность - указаны через наклонную черту общая и нижняя облачность в баллах и высота нижней границы облаков в метрах; квадратными скобками обозначены формы облаков: Ci - перистые, Cs - перисто-слоистые, Cc - перисто-кучевые, Ac - высококучевые, As - высокослоистые, Sc - слоисто-кучевые, Ns - слоисто-дождевые, Cu - кучевые, Cb - кучево-дождевые. Подробнее классификацию облаков см. в Атласе облаков (PDF).
T - Температура воздуха - температура, измеренная на высоте 2 м над землей.
Td - Температура точки росы - температура, при понижении до которой содержащийся в воздухе водяной пар достигнет насыщения.
f - Относительная влажность воздуха - влажноcть воздуха, измеренная на высоте 2 м над землей.
Te - Эффективная температура - температура, которую ощущает одетый по сезону человек в тени. Характеристика душности погоды. При расчете учитывается влияние влажности воздуха и скорости ветра на теплоощущения человека.
Tes - Эффективная температура на солнце - температура, которую ощущает человек, с поправкой на солнечный нагрев. Характеристика знойности погоды. Зависит от высоты солнца над горизонтом, облачности и скорости ветра. Ночью, в пасмурную погоду, а также при ветре 12 м/с и более поправка равна нулю.
P - Атмосферное давление - приведенное к уровню моря атмосферное давление.
Po - Атмосферное давление - измеренное на уровне метеостанции атмосферное давление.
Tmin - Минимальная температура - минимум температуры воздуха на высоте 2 м над землей.
Tmax - Максимальная температура - максимум температуры воздуха на высоте 2 м над землей.
R - Количество осадков - Количество выпавших осадков за период времени, мм. При наведении курсора мыши на число - период времени, за который выпало указанное количество осадков.
R24 - Количество осадков - Количество выпавших осадков за 24 часа, мм.
S - Снежный покров - Высота снежного покрова, см. При наведении курсора мыши на число - состояние снежного покрова и степень покрытия местности в баллах.